CZ-3B DEB, 40185

Orbit data source: Space-Track

CZ-3B DEB, 40185 is space debris in HEO originally from a launch on Mon, 19 Dec 2011 UTC launched from the Xichang Space Center, China (XSC). Debris objects in space refer to the collection of defunct objects orbiting the Earth. Examples of debris include non-operational satellites, rocket bodies, and fragments generated from explosions, collisions, or faulty payload assembly.

Loading next visibility...
Identifier
40185, 2011-077J
Orbit
HEO
Country
Flag of CNCN / PRC
Related business
Manufacturer
CALT
Mission
Spacecraft
Bus & Motor
Unknown
Mass
Unknown
Launch date (UTC)
2011-12-19 (14 years ago)
Launch vehicle
Unknown
Launch site
Xichang Space Center, China (XSC)
Object type
Payload
Rocket body
Debris
Shape & HBR
Unknown shape, 0.6 m
Radar Cross Section
Medium (>0.1 m² and <1 m²)

Expand to show TLE details & history
Last TLE update: 13 hours ago

TLE from 13 hours ago
0 CZ-3B DEB
1 40185U 11077J   25342.28496727  .00000226  00000-0  31504-2 0  9990
2 40185  25.6955 296.1473 7480896 164.8307 245.6120  1.92833546 81645
Epoch: 2025-12-08T06:50Z
TLE epoch observation values (Epoch: 2025-12-08T06:50:21.172Z)
Latitude
0.00002°
Longitude
116.23257°
Altitude
36,784.811 km
Speed
1.962 km/s
True Right ascension
19h 44m 25s
True Declination
0° 00' 00"
Sunlit
Object was in daylight at epoch
Visualization orbit readout
Latitude
Unknown
Longitude
Unknown
Altitude
Unknown
Speed
Unknown
Apparent Right ascension
Unknown
Apparent Declination
Unknown
Sunlit
N/A
Visualization observer readout
Local Sidereal Time
18:16:15
Azimuth
Unknown
Elevation
Unknown
Doppler factor
Unknown
Orbital elements
Apogee altitude
41,291.366 km
Perigee altitude
491.33 km
Semi-major axis
27,269.485 km
Eccentricity
0.74809
Inclination
25.6955°
RAAN
296.1473°
Arg. of periapsis
164.8307°
True anomaly
195.21653°
Mean anomaly
245.612°
Eccentric anomaly
218.77112°
Mean motion
0.48198 °/min
Orbital period
746.92 mins
BSTAR
0.0031504
Loading maneuver chart data...
Computing Atmospheric mass density...
Loading historical data...
Loading historical data...
Loading historical data...
Loading historical data...
Loading historical data...
Loading historical data...
Loading historical data...

Documentation

Showing up to 5 results
|